Theta_e
302 295 292 294 294 289 291 289 286 289 294 291 291 292 296 298 298 299 298 298 298 299 303 303 304 308 314 319 320 321 319 319 319 316 315 318 321 323 322 325 326 325 324 323
299 293 295 298 297 292 290 288 287 290 293 291 291 290 293 294 294 299 301 300 299 300 301 303 303 304 307 311 319 319 319 317 319 320 318 316 317 317 321 323 323 325 325 324
293 292 298 297 295 294 290 288 286 287 291 291 289 289 290 296 295 297 298 300 301 302 304 305 302 302 303 306 310 316 318 317 318 319 315 314 314 314 314 316 318 321 322 322
296 297 295 294 294 295 289 292 291 289 287 282 287 279 285 289 291 294 297 298 300 302 303 304 302 301 301 303 304 312 316 315 316 317 316 314 315 314 314 315 317 318 319 319
289 292 292 292 293 296 291 295 293 291 286 283 282 282 284 287 288 290 293 297 299 301 301 301 301 302 301 302 302 304 309 316 315 316 316 315 313 314 315 315 315 315 316 318
292 296 296 295 296 297 295 292 291 289 287 276 284 283 280 285 289 291 293 294 296 297 297 299 301 301 302 302 304 309 308 312 317 315 315 315 314 315 315 314 314 315 315 316
291 293 292 296 291 294 293 288 280 276 278 277 280 282 285 287 291 291 293 293 294 293 295 294 297 300 299 299 301 303 305 306 314 315 315 315 315 315 315 315 315 314 313 313
285 283 291 294 292 289 292 289 279 272 274 276 282 279 283 290 293 293 294 294 294 294 295 297 298 298 298 298 299 299 299 299 300 302 301 303 304 305 304 304 303 303 304 305
285 284 290 294 295 295 290 288 289 280 271 274 278 281 286 289 289 291 291 292 293 295 295 296 297 296 296 296 297 298 298 298 299 299 298 298 299 299 299 300 300 300 301 303
286 281 288 291 295 295 293 294 285 281 271 269 276 278 281 284 288 291 291 292 294 295 294 295 295 295 295 295 295 296 297 298 298 298 297 297 298 298 298 298 298 298 298 299
290 287 283 289 289 290 290 288 288 287 280 274 271 277 284 288 289 290 291 292 293 295 294 294 294 295 295 295 295 295 296 297 297 296 296 296 296 296 297 296 296 296 296 296
293 289 282 286 286 293 294 290 290 283 281 282 279 279 286 287 289 289 291 292 292 294 294 294 294 294 294 293 294 295 296 297 297 296 295 294 295 294 293 293 294 294 294 294
294 287 281 283 287 289 289 291 292 291 284 282 279 281 289 287 288 289 290 291 291 291 293 293 292 292 293 292 293 295 296 296 295 293 292 291 291 291 291 292 293 293 292 292
296 289 284 280 282 287 287 289 291 290 284 284 283 286 287 286 288 289 290 290 290 291 292 292 291 291 293 292 293 293 294 295 294 291 290 289 289 290 290 292 292 292 291 290
293 285 287 287 285 287 288 288 289 288 289 285 287 287 290 292 290 289 290 290 289 290 292 291 292 293 292 290 291 292 293 293 293 290 288 288 289 290 290 290 290 290 289 289
292 285 286 285 287 288 284 288 289 290 290 289 290 288 295 296 292 291 290 291 290 290 291 293 292 291 290 290 291 292 292 293 293 290 288 287 288 288 288 288 287 287 287 286
287 286 284 281 285 285 281 286 286 288 291 291 286 291 296 294 293 292 291 289 291 293 292 293 294 295 294 292 292 290 292 291 291 291 288 287 287 286 286 285 285 285 285 285
284 283 284 281 282 274 283 290 290 288 290 292 293 294 295 296 298 297 294 294 293 292 293 294 295 295 295 292 290 291 290 290 290 290 288 286 285 285 284 284 284 284 283 283
287 283 282 279 278 281 281 283 286 286 287 292 290 293 295 297 293 292 294 295 295 296 296 295 293 293 292 290 289 289 288 289 288 287 286 285 284 284 284 284 284 283 283 283
286 286 281 281 276 274 283 288 290 291 283 292 293 293 293 294 287 293 294 291 288 284 284 285 285 285 285 285 286 286 286 286 285 285 285 285 284 283 282 283 282 281 281 284
280 281 278 278 277 279 283 283 288 280 282 292 293 293 294 292 294 289 284 281 281 281 281 282 281 280 280 281 284 282 281 280 281 282 282 281 281 280 281 280 280 281 282 282
279 278 277 280 276 275 287 284 284 287 285 284 288 292 292 293 283 280 279 279 278 276 277 278 278 277 276 277 279 277 276 277 277 276 276 276 277 277 279 277 279 279 279 279
278 283 279 283 281 285 284 284 283 283 283 282 282 282 284 280 278 278 276 276 276 274 275 275 276 275 274 274 274 273 273 273 273 271 271 272 273 274 276 275 275 276 277 277
281 284 282 283 286 286 285 281 281 280 280 279 278 279 279 277 277 276 276 275 274 273 272 272 272 271 270 270 270 269 270 270 266 266 269 271 271 271 272 274 274 274 274 275
281 282 281 280 280 279 279 279 278 278 277 277 276 276 276 276 275 274 273 272 271 271 270 270 268 268 266 266 266 266 267 267 266 267 268 268 269 268 269 271 271 272 274 275
282 282 282 282 280 280 277 278 278 277 276 275 274 272 273 273 273 272 270 269 269 268 267 266 265 264 263 263 263 264 263 264 263 264 265 265 266 266 267 267 267 272 274 276
Wind_Speed
4 4 13 10 5 2 5 3 4 3 3 3 8 10 16 9 6 9 10 10 9 11 11 9 8 8 8 8 11 14 13 12 7 4 4 4 8 7 5 7 9 9 8 9
3 17 6 5 4 3 2 3 4 4 3 1 7 11 12 9 9 14 16 11 11 8 9 11 9 7 8 9 12 9 12 10 11 8 4 4 4 3 4 6 9 10 9 9
12 4 12 8 5 8 4 6 4 3 4 1 6 14 10 13 8 9 10 12 10 14 17 14 9 9 8 8 9 9 11 10 11 10 4 3 3 2 2 4 4 7 8 8
12 9 8 5 13 9 11 7 5 3 2 5 1 12 7 6 10 8 10 9 15 16 14 13 8 7 9 10 7 8 8 9 8 9 8 7 7 7 4 4 3 4 7 8
7 11 9 12 8 9 5 7 8 4 3 3 4 5 6 1 9 5 10 14 13 14 9 9 9 9 7 8 8 8 6 7 8 10 9 8 6 4 2 3 4 4 4 6
7 2 10 8 5 10 6 6 6 4 3 6 11 7 5 6 9 7 7 6 9 10 9 10 8 7 5 3 5 7 8 6 7 8 8 10 8 6 4 3 3 3 3 3
5 10 3 5 7 3 7 8 2 1 4 10 1 7 17 4 8 7 9 9 8 6 7 9 7 5 6 7 7 7 8 6 6 7 7 7 7 6 6 4 3 2 1 1
11 8 12 6 8 7 17 11 7 9 6 4 2 12 9 6 8 8 9 8 8 7 5 6 7 7 8 8 6 7 8 8 7 7 7 6 5 4 3 3 2 2 1 1
11 12 3 7 7 11 5 14 6 5 2 3 6 8 9 10 10 9 9 4 8 7 4 5 5 6 6 7 8 8 8 7 7 7 6 6 6 6 5 5 3 2 2 2
4 3 6 6 4 10 12 10 7 2 4 6 5 6 10 4 9 9 10 9 6 5 3 5 6 7 6 5 5 6 7 8 7 7 6 5 6 5 5 5 5 4 3 3
2 3 2 8 15 15 9 10 5 5 6 6 2 9 9 13 9 9 8 6 7 7 7 7 7 6 5 4 5 6 7 8 7 7 6 6 6 6 5 5 4 3 2 3
13 3 5 15 1 12 19 15 18 10 17 10 1 11 3 6 6 5 9 8 7 5 6 6 5 5 5 7 7 7 7 8 7 6 6 6 6 6 6 5 4 2 1 1
14 8 8 4 3 1 13 21 21 22 2 18 8 12 3 5 5 8 9 8 6 3 5 5 5 7 8 8 7 8 7 7 7 7 7 7 7 6 6 6 5 4 2 1
16 11 10 17 6 8 14 20 22 21 17 20 18 27 10 3 6 7 7 7 6 7 7 7 7 10 10 8 7 7 7 7 7 7 7 7 8 8 7 6 5 4 3 2
13 15 18 20 7 1 10 23 24 22 26 19 26 26 25 17 11 9 7 7 7 7 6 9 12 12 10 7 8 7 7 8 7 8 8 8 7 6 5 4 4 2 3 4
13 17 13 16 16 19 12 16 21 23 24 24 26 23 21 17 9 9 12 9 10 10 9 9 11 9 10 11 12 10 8 11 8 8 9 7 7 6 5 4 4 3 4 5
18 11 14 22 18 18 18 21 17 18 20 20 25 30 31 18 10 11 9 9 12 12 11 12 14 15 15 13 13 11 12 7 9 8 8 8 7 6 5 4 3 4 6 4
3 8 13 16 16 26 5 13 24 29 30 28 27 22 19 20 23 17 9 13 13 10 13 13 12 11 12 8 8 8 8 9 9 9 8 6 5 4 3 3 4 5 4 6
9 8 11 15 19 18 6 5 12 15 25 17 9 16 22 25 6 9 11 7 12 14 12 7 4 5 4 6 5 8 8 9 8 7 5 5 4 1 4 6 7 6 6 6
13 15 11 7 13 28 23 21 12 11 16 17 23 26 27 23 8 21 1 1 5 8 5 6 8 8 9 8 4 4 4 6 6 5 4 3 3 3 5 6 6 4 4 10
6 8 17 13 15 11 6 4 7 16 10 22 21 21 22 17 18 4 9 10 8 9 11 9 11 12 11 11 9 12 11 11 7 7 6 6 5 2 4 4 2 5 8 10
8 7 7 9 9 11 8 2 12 8 3 3 7 17 17 14 8 8 9 10 8 10 10 9 10 11 11 12 10 10 12 8 8 8 7 7 6 5 5 6 8 8 7 11
6 13 10 9 4 7 8 8 2 3 5 3 3 1 4 8 6 7 8 8 9 9 9 8 8 9 10 11 11 10 10 10 10 9 8 7 7 7 6 8 9 8 7 9
6 3 5 3 10 12 6 4 3 3 6 6 6 3 9 12 10 11 8 8 9 9 10 7 7 8 8 9 9 8 9 10 6 6 7 7 8 8 7 6 7 7 7 9
5 5 6 4 1 4 6 3 4 6 10 11 8 6 12 14 11 10 9 9 7 7 8 7 8 8 8 8 6 6 8 8 8 7 7 7 7 8 9 8 8 9 9 11
5 6 4 8 3 2 3 7 8 9 7 8 10 9 13 9 11 10 9 7 7 7 7 7 7 6 6 5 6 6 6 7 6 7 6 6 7 7 8 10 12 16 23 25
Wind_Direction
165 176 211 202 190 117 145 175 182 245 237 194 238 249 261 250 231 253 247 244 244 243 255 251 240 235 228 208 201 210 209 208 173 158 168 211 222 216 213 214 211 208 209 204
177 230 196 157 188 203 170 180 215 288 297 227 295 266 258 245 228 227 239 237 236 242 251 256 251 223 214 217 216 214 215 192 195 199 188 174 158 199 199 195 211 214 212 207
205 173 169 169 174 201 202 190 161 211 339 294 326 273 245 256 216 223 233 236 235 231 248 245 233 224 225 225 210 212 214 202 198 193 130 103 89 81 150 212 212 218 214 211
235 233 179 183 217 188 236 162 158 173 78 246 45 281 257 245 257 228 248 237 237 232 238 252 238 227 213 229 211 213 203 194 192 171 183 183 196 204 207 181 180 199 201 215
214 173 166 198 197 168 233 161 174 161 150 350 215 284 265 247 271 259 240 242 247 244 232 241 240 240 230 228 214 202 195 194 184 183 188 189 195 203 155 169 201 224 214 220
219 241 191 196 145 175 142 87 50 60 100 270 232 191 217 204 214 240 243 245 243 252 257 254 247 232 205 172 188 177 167 182 174 176 183 184 192 190 183 189 216 228 231 237
166 211 208 140 132 125 173 127 121 318 206 240 322 198 251 257 259 230 258 273 264 257 278 264 238 177 159 171 184 144 137 136 162 169 173 181 193 188 206 208 209 250 306 273
204 216 179 179 176 181 192 178 163 198 203 251 195 233 249 243 284 278 256 249 271 283 277 256 210 178 174 166 163 138 133 120 116 117 119 121 134 133 127 133 139 133 154 306
198 229 51 180 157 149 172 215 174 106 7 44 225 292 292 252 267 263 274 282 268 280 281 209 182 170 169 164 179 157 135 124 126 125 122 117 120 127 136 126 112 99 58 12
226 266 183 179 136 207 181 151 183 169 180 253 263 271 238 308 245 259 257 241 244 261 205 183 189 186 192 188 160 144 138 137 138 136 133 137 139 131 126 119 105 88 64 33
195 79 285 144 202 183 178 195 205 170 163 190 275 259 216 225 205 227 270 277 251 228 208 195 208 211 194 174 169 156 145 144 149 149 144 143 139 126 111 108 102 90 70 31
202 184 209 211 142 217 207 200 201 206 213 232 310 260 325 213 200 227 262 250 252 240 215 204 198 204 198 193 185 179 166 161 167 158 154 151 141 137 136 140 144 130 119 34
178 204 226 198 234 359 209 211 205 219 71 213 203 259 274 201 209 208 230 265 270 251 206 208 218 219 215 210 197 191 185 180 171 165 159 157 160 160 170 174 173 182 179 212
173 202 219 231 223 146 203 210 212 208 222 233 222 249 218 159 227 240 250 254 252 247 219 215 227 229 226 219 205 198 201 185 176 163 169 176 179 179 178 175 182 197 213 262
215 221 223 233 243 267 232 212 211 214 221 218 234 242 252 236 231 228 240 245 233 249 230 223 228 229 230 216 215 212 204 188 180 177 180 196 184 179 171 180 194 212 238 252
239 246 238 243 236 242 231 233 225 221 224 234 244 249 256 250 210 228 226 229 238 234 223 229 230 228 227 222 222 216 202 201 178 188 197 185 180 178 185 198 215 241 265 265
235 248 237 248 235 241 246 227 223 240 235 231 237 240 251 256 242 225 227 212 234 240 235 227 223 224 230 221 213 210 209 175 191 196 196 189 182 191 198 209 232 263 275 270
319 263 237 253 252 249 217 205 209 228 236 239 242 252 252 252 251 256 191 214 230 226 234 239 237 234 232 217 201 202 171 187 197 202 196 169 166 214 262 274 284 287 274 284
192 263 259 236 241 257 325 216 175 199 233 227 234 246 252 257 269 259 229 203 227 229 244 273 292 242 268 231 217 186 185 188 183 185 160 161 154 233 303 304 303 298 296 294
195 225 242 273 235 238 236 216 205 191 239 228 221 236 241 250 236 256 147 167 54 53 38 30 35 41 36 349 322 170 135 107 85 69 75 73 45 347 306 294 295 264 249 281
181 208 223 236 254 289 341 302 131 193 223 232 228 228 234 234 230 325 103 81 77 63 50 49 62 58 30 13 49 65 58 47 26 31 23 15 10 310 275 285 273 281 291 292
177 204 200 224 228 273 167 223 179 200 206 261 203 216 219 231 116 104 95 86 74 70 58 45 62 55 41 32 40 55 45 19 19 13 4 348 341 332 327 314 304 298 296 295
226 203 245 187 231 211 221 237 203 119 302 320 170 256 125 123 121 118 113 105 93 84 70 47 62 70 47 36 36 37 17 7 5 357 346 334 330 322 317 309 310 309 300 283
261 175 204 132 217 224 201 196 292 272 138 81 358 19 111 122 117 112 99 84 77 55 47 46 58 55 47 29 27 22 6 0 355 343 340 335 329 322 319 314 302 292 286 285
195 157 204 267 283 3 274 321 99 84 84 83 67 75 95 104 88 96 86 73 60 61 52 40 37 36 25 9 7 6 0 358 356 347 339 336 332 324 313 296 293 290 281 279
184 197 192 257 51 330 35 138 141 124 115 107 118 60 72 80 101 97 87 74 54 41 38 35 35 27 10 350 347 351 351 355 345 338 335 326 315 314 307 304 303 288 288 287